Weather History for PAFA - September, 2012

Change the Weather History Date:

Saturday, September 29, 2012

  Actual Average Record
Temperature  
Mean Temperature 33 °F 38 °F  
Max Temperature 38 °F 46 °F 68 °F (1942)
Min Temperature 28 °F 29 °F 12 °F (1992)
Degree Days  
Heating Degree Days 32 27  
Month to date heating degree days 542 578  
Since 1 July heating degree days 940 967  
Cooling Degree Days 0 0  
Month to date cooling degree days 0 0  
Year to date cooling degree days 34 61  
Moisture  
Dew Point 30 °F    
Average Humidity 84    
Maximum Humidity 93    
Minimum Humidity 70    
Precipitation  
Precipitation 0.00 in 0.03 in 0.50 in (1954)
Month to date precipitation 0.55 1.07  
Year to date precipitation 7.76 8.64  
Snow  
Snow 0.00 in 0.20 in 7.00 in (1972)
Month to date snowfall 0.0 1.7  
Since 1 July snowfall 0.0 1.7  
Since 1 September snowfall 0.0 1.7  
Snow Depth 0.00 in    
Sea Level Pressure  
Sea Level Pressure 29.68 in    
Wind  
Wind Speed 2 mph (SW)    
Max Wind Speed 7 mph    
Max Gust Speed -    
Visibility 10 miles    
Events      
T = Trace of Precipitation, MM = Missing Value Source: NWS Daily Summary

Daily Weather History Graph

Daily Weather History Graph

Search for Another Location

Airport or City:

Trip Planner

Search our weather history database for the weather conditions in past years. The results will help you decide how hot, cold, wet, or windy it might be!

Date:

Astronomy

Sep. 29, 2012 Rise Set
Actual Time 7:57 AM AKDT 7:24 PM AKDT
Civil Twilight 7:08 AM AKDT 8:12 PM AKDT
Nautical Twilight 6:10 AM AKDT 9:10 PM AKDT
Astronomical Twilight 5:06 AM AKDT 10:13 PM AKDT
Moon 6:40 PM AKDT 7:50 AM AKDT
Length of Visible Light 13h 04m
Length of Day
11h 27m
Full, 100% of the Moon is Illuminated
Sep 29
Full
Sep 29
Full
Oct 7
Last Quarter
Oct 15
New
Oct 21
First Quarter

Hourly Weather History & Observations

Time (AKDT) Temp. Windchill Dew Point Humidity Pressure Visibility Wind Dir Wind Speed Gust Speed Precip Events Conditions
12:53 AM 35.1 °F - 30.9 °F 85% 29.51 in 10.0 mi Calm Calm - N/A   Mostly Cloudy
1:53 AM 35.1 °F - 30.9 °F 85% 29.52 in 10.0 mi Calm Calm - N/A   Mostly Cloudy
2:53 AM 32.0 °F - 28.9 °F 88% 29.53 in 10.0 mi Calm Calm - N/A   Overcast
3:09 AM 30.2 °F - 28.4 °F 93% 29.51 in 10.0 mi Calm Calm - N/A   Scattered Clouds
3:53 AM 30.0 °F - 28.0 °F 92% 29.54 in 10.0 mi Calm Calm - N/A   Clear
4:53 AM 28.9 °F - 27.0 °F 92% 29.54 in 10.0 mi Calm Calm - N/A   Scattered Clouds
5:53 AM 30.9 °F - 28.9 °F 92% 29.55 in 10.0 mi Calm Calm - N/A   Mostly Cloudy
6:53 AM 32.0 °F - 30.0 °F 92% 29.55 in 10.0 mi Calm Calm - N/A   Overcast
7:53 AM 33.1 °F - 30.9 °F 92% 29.56 in 10.0 mi Calm Calm - N/A   Mostly Cloudy
8:53 AM 32.0 °F - 30.0 °F 92% 29.59 in 10.0 mi Calm Calm - N/A   Overcast
9:53 AM 32.0 °F - 28.9 °F 88% 29.61 in 10.0 mi Calm Calm - N/A   Mostly Cloudy
10:53 AM 33.1 °F 30.0 °F 30.0 °F 89% 29.63 in 10.0 mi SSW 3.5 mph - N/A   Mostly Cloudy
11:53 AM 34.0 °F 29.8 °F 30.0 °F 85% 29.66 in 10.0 mi SSW 4.6 mph - N/A   Overcast
12:53 PM 35.1 °F 30.1 °F 30.0 °F 82% 29.68 in 10.0 mi SSW 5.8 mph - N/A   Overcast
1:53 PM 37.0 °F 32.4 °F 30.9 °F 79% 29.69 in 10.0 mi WSW 5.8 mph - N/A   Overcast
2:53 PM 37.9 °F 34.4 °F 30.9 °F 76% 29.71 in 10.0 mi Variable 4.6 mph - N/A   Overcast
3:53 PM 37.0 °F 33.3 °F 30.9 °F 79% 29.73 in 10.0 mi Variable 4.6 mph - N/A   Overcast
4:53 PM 37.9 °F 35.5 °F 32.0 °F 79% 29.75 in 10.0 mi SW 3.5 mph - N/A   Overcast
5:53 PM 37.9 °F 35.5 °F 30.9 °F 76% 29.77 in 10.0 mi SSW 3.5 mph - N/A   Mostly Cloudy
6:53 PM 37.9 °F 33.5 °F 30.9 °F 76% 29.79 in 10.0 mi WSW 5.8 mph - N/A   Mostly Cloudy
7:44 PM 37.4 °F 32.1 °F 28.4 °F 70% 29.80 in 10.0 mi West 6.9 mph - N/A   Mostly Cloudy
7:53 PM 37.0 °F 31.6 °F 28.0 °F 70% 29.83 in 10.0 mi West 6.9 mph - N/A   Mostly Cloudy
8:53 PM 34.0 °F 28.8 °F 28.0 °F 79% 29.84 in 10.0 mi WSW 5.8 mph - N/A   Partly Cloudy
9:53 PM 33.1 °F 26.9 °F 28.9 °F 85% 29.87 in 10.0 mi West 6.9 mph - N/A   Mostly Cloudy
10:53 PM 33.1 °F - 28.9 °F 85% 29.89 in 10.0 mi Calm Calm - N/A   Mostly Cloudy
11:53 PM 32.0 °F 27.5 °F 28.0 °F 85% 29.92 in 10.0 mi SSW 4.6 mph - N/A   Mostly Cloudy